Pontianak / Supadio, Indonesia

4:17 PM WIB on February 21, 2017 (GMT +0700)
Supadio

Weather History for WIOO - April, 2014

Change the Weather History Date:

Wednesday, April 23, 2014

  Actual Average Record
Temperature  
Mean Temperature 83 °F -  
Max Temperature 93 °F - - ()
Min Temperature 73 °F - - ()
Cooling Degree Days 18    
Growing Degree Days 33 (Base 50)    
Moisture  
Dew Point 75 °F    
Average Humidity 75    
Maximum Humidity 100    
Minimum Humidity 48    
Precipitation  
Precipitation 0.00 in - - ()
Sea Level Pressure  
Sea Level Pressure 29.80 in    
Wind  
Wind Speed 7 mph ()    
Max Wind Speed 46 mph    
Max Gust Speed -    
Visibility 5.3 miles    
Events      
T = Trace of Precipitation, MM = Missing Value Source: Averaged Metar Reports

Daily Weather History Graph

Daily Weather History Graph

Search for Another Location

Airport or City:

Trip Planner

Search our weather history database for the weather conditions in past years. The results will help you decide how hot, cold, wet, or windy it might be!

Date:

Astronomy

Apr. 23, 2014 Rise Set
Actual Time 5:37 AM WIB 5:44 PM WIB
Civil Twilight 5:16 AM WIB 6:05 PM WIB
Nautical Twilight 4:51 AM WIB 6:29 PM WIB
Astronomical Twilight 4:27 AM WIB 6:54 PM WIB
Moon 12:15 AM WIB (4/23) 12:41 PM WIB (4/23)
Length of Visible Light 12h 48m
Length of Day
12h 06m
Last Quarter, 40% of the Moon is Illuminated
Apr 23
Last Quarter
Apr 29
New
May 7
First Quarter
May 15
Full
May 21
Last Quarter

Hourly Weather History & Observations

Time (WIB) Temp. Heat Index Dew Point Humidity Pressure Visibility Wind Dir Wind Speed Gust Speed Precip Events Conditions
1:00 AM - - 74 °F % 29.85 in 4 mi NNE 46.0 mph - -   Partly Cloudy
4:00 AM 75 °F - 74 °F 95% 29.84 in 4 mi NNE 4.6 mph - -   Mostly Cloudy
5:00 AM 75.2 °F - 73.4 °F 94% 29.83 in 3.7 mi NE 3.5 mph - N/A   Mostly Cloudy
5:30 AM - - - N/A% 29.83 in 3.7 mi Calm Calm - N/A   Unknown
6:00 AM 73.4 °F - 73.4 °F 100% 29.86 in 5.0 mi NNE 3.5 mph - N/A   Scattered Clouds
7:00 AM 75 °F - 73 °F 92% 29.89 in 6 mi NE 3.5 mph - -   Scattered Clouds
7:00 AM 75.2 °F - 73.4 °F 94% 29.86 in - North - - N/A   Partly Cloudy
7:30 AM 77.0 °F - 73.4 °F 89% 29.89 in 6.2 mi NE 3.5 mph - N/A   Partly Cloudy
8:00 AM 78.8 °F - 73.4 °F 83% 29.89 in 6.2 mi ENE 5.8 mph - N/A   Partly Cloudy
9:30 AM 82.4 °F 88.2 °F 73.4 °F 74% 29.89 in 6.2 mi East 3.5 mph - N/A   Partly Cloudy
10:00 AM 83 °F - 75 °F 71% 29.90 in 6 mi East 3.5 mph - -   Scattered Clouds
10:00 AM 84.2 °F 92.3 °F 75.2 °F 74% 29.89 in 6.2 mi East 3.5 mph - N/A   Partly Cloudy
11:00 AM - - - N/A% - 6.2 mi SE 3.5 mph - N/A   Partly Cloudy
11:30 AM 87.8 °F 99.7 °F 77.0 °F 70% 29.83 in 6.2 mi NNE 3.5 mph - N/A   Partly Cloudy
12:00 PM 89.6 °F 102.2 °F 77.0 °F 66% 29.83 in 6.2 mi Calm Calm - N/A   Scattered Clouds
1:00 PM 90 °F - 75 °F 53% 29.80 in 6 mi North 4.6 mph - -   Mostly Cloudy
1:00 PM 89.6 °F 99.8 °F 75.2 °F 62% 29.77 in 6.2 mi North 4.6 mph - N/A   Mostly Cloudy
1:30 PM 91.4 °F 102.5 °F 75.2 °F 59% 29.77 in 6.2 mi SW 2.3 mph - N/A   Mostly Cloudy
2:00 PM 93.2 °F 102.4 °F 73.4 °F 52% 29.74 in 6.2 mi Calm Calm - N/A   Mostly Cloudy
2:30 PM 91.4 °F 100.1 °F 73.4 °F 55% 29.74 in 6.2 mi Calm Calm - N/A   Mostly Cloudy
3:00 PM 93.2 °F 102.4 °F 73.4 °F 52% 29.71 in 6.2 mi Calm Calm - N/A   Scattered Clouds
3:30 PM 93.2 °F 102.4 °F 73.4 °F 52% 29.71 in 6.2 mi Calm Calm - N/A   Mostly Cloudy
4:00 PM 92 °F - 75 °F 48% 29.74 in 6 mi Calm Calm - -   Mostly Cloudy
4:00 PM 91.4 °F 102.5 °F 75.2 °F 59% 29.71 in 6.2 mi Calm Calm - N/A   Partly Cloudy
4:30 PM 87.8 °F 99.7 °F 77.0 °F 70% 29.74 in 6.2 mi SW 4.6 mph - N/A   Partly Cloudy
5:00 PM 87.8 °F 99.7 °F 77.0 °F 70% 29.74 in 6.2 mi SSW 3.5 mph - N/A   Partly Cloudy
5:30 PM 87.8 °F 99.7 °F 77.0 °F 70% 29.74 in 5.0 mi SSW 4.6 mph - N/A   Mostly Cloudy
6:00 PM 87.8 °F 102.5 °F 78.8 °F 75% 29.74 in 4.3 mi SW 4.6 mph - N/A   Mostly Cloudy
6:30 PM 84.2 °F 92.3 °F 75.2 °F 74% 29.77 in 4.3 mi West 3.5 mph - N/A   Mostly Cloudy
7:00 PM 83 °F - 76 °F 75% 29.79 in 4 mi WSW 4.6 mph - -   Partly Cloudy
7:30 PM 82.4 °F 90.9 °F 77.0 °F 84% 29.80 in 4.3 mi SW 3.5 mph - N/A   Scattered Clouds
8:00 PM 80.6 °F 87.1 °F 77.0 °F 89% 29.80 in 4.3 mi SW 3.5 mph - N/A   Scattered Clouds
9:00 PM 80.6 °F 87.1 °F 77.0 °F 89% 29.80 in 4.3 mi SW 4.6 mph - N/A   Scattered Clouds
9:30 PM 80.6 °F 87.1 °F 77.0 °F 89% 29.80 in 3.7 mi Calm Calm - N/A   Partly Cloudy
10:00 PM 80 °F - 77 °F 88% 29.83 in 4 mi Calm Calm - -   Partly Cloudy
10:00 PM 78.8 °F - 77.0 °F 94% 29.83 in 3.7 mi Calm Calm - N/A   Partly Cloudy